Vorticity
nan nan nan nan nan nan nan nan nan nan nan nan nan nan nan nan nan nan nan nan nan nan nan nan nan nan nan nan nan nan nan nan nan nan nan nan nan nan nan nan nan nan nan nan nan nan nan nan nan
nan 2 1 6 7 3 9 13 2 -4 8 11 7 12 3 6 15 17 8 9 10 7 7 8 7 4 4 4 4 4 4 4 4 4 4 4 4 3 3 3 3 3 3 3 4 3 4 4 nan
nan 9 9 9 2 -2 5 8 9 9 -4 -0 7 8 10 9 4 8 10 9 8 6 8 11 9 4 4 5 4 4 5 4 5 4 4 4 3 3 4 3 3 4 3 3 4 4 5 6 nan
nan 8 5 2 5 4 3 2 9 7 4 2 4 5 14 7 6 6 10 11 5 5 6 12 9 4 5 5 5 4 5 5 5 4 4 4 4 4 4 4 4 3 4 5 5 6 6 6 nan
nan 6 6 4 5 4 8 10 -2 -6 15 6 6 5 7 5 12 7 6 7 5 8 9 12 8 5 5 6 5 5 5 5 5 5 4 4 4 5 5 5 4 5 5 5 6 7 7 7 nan
nan 5 5 7 7 5 2 7 -1 6 5 9 16 7 9 9 2 5 6 6 6 6 11 13 10 5 5 5 6 6 5 5 5 4 4 5 5 5 4 5 5 7 7 6 6 5 6 7 nan
nan 4 3 1 4 6 7 6 9 6 3 13 9 12 2 9 3 5 4 6 7 7 8 8 10 10 8 6 6 5 6 5 5 5 5 5 5 5 4 4 8 9 6 6 5 5 6 7 nan
nan 3 6 5 5 4 4 3 5 8 11 4 7 5 3 1 0 5 3 7 7 5 5 8 8 7 6 9 9 6 5 5 6 6 5 6 5 6 6 7 7 6 6 6 5 4 5 6 nan
nan 4 8 7 3 6 3 3 7 8 8 -0 4 2 2 -3 3 5 7 6 6 12 14 6 5 7 7 7 9 10 8 7 6 6 6 4 5 10 10 15 12 10 8 6 4 4 5 6 nan
nan 4 4 3 2 3 4 5 6 7 1 3 5 7 2 3 10 6 4 3 4 6 16 11 6 8 6 6 9 9 6 8 8 8 7 5 6 8 8 15 19 13 8 6 7 8 8 8 nan
nan -1 3 2 3 -3 -1 3 1 10 10 11 -2 -6 3 8 5 7 9 8 6 6 12 15 11 9 6 4 6 8 8 9 9 8 6 6 7 8 9 6 8 11 8 7 12 12 12 10 nan
nan 5 2 1 3 3 2 1 2 4 8 5 3 7 6 4 5 6 8 9 9 10 8 16 16 6 6 6 7 8 7 7 8 11 7 5 6 7 6 6 10 10 10 8 9 12 10 7 nan
nan 5 3 6 5 3 3 4 5 7 6 3 9 6 7 7 7 8 9 9 8 7 7 13 15 8 6 5 8 8 8 9 8 10 10 7 6 7 8 8 6 5 7 10 10 5 6 10 nan
nan 3 5 4 4 5 6 3 6 9 7 8 8 8 6 7 6 6 9 9 9 8 8 10 14 13 8 5 4 8 10 9 8 9 11 9 6 6 7 8 9 7 6 5 8 7 6 9 nan
nan 5 8 8 6 2 7 11 10 7 7 7 6 9 9 8 10 10 9 7 8 9 11 10 12 13 8 7 4 5 8 8 9 9 10 8 6 5 7 8 9 8 8 7 6 8 8 7 nan
nan 10 7 9 8 7 4 7 7 7 8 7 10 11 12 10 7 11 6 6 9 10 12 11 12 13 7 7 7 5 9 8 7 8 8 9 7 6 7 8 7 9 8 7 8 8 9 8 nan
nan 11 9 7 6 9 8 7 8 9 6 7 8 6 7 10 9 12 8 7 8 15 12 10 13 12 8 5 7 8 7 7 7 8 9 9 7 7 6 5 7 10 8 7 8 8 8 7 nan
nan 5 4 6 11 12 11 7 6 10 9 7 9 9 5 7 14 10 4 5 16 15 11 12 12 11 8 5 7 8 7 8 7 8 9 8 8 8 7 8 9 6 7 9 9 8 7 8 nan
nan 4 4 7 9 8 8 7 6 8 12 16 11 5 8 8 13 10 5 9 14 8 9 11 10 8 9 8 7 7 7 6 8 10 9 7 7 8 7 8 9 7 9 8 8 8 7 9 nan
nan 5 9 5 8 6 8 9 12 9 6 8 9 9 6 6 7 8 9 15 9 8 9 9 8 10 8 8 8 7 9 8 9 10 10 9 7 9 8 8 9 8 9 10 9 8 8 9 nan
nan 9 5 4 7 10 10 11 9 10 5 9 10 8 8 7 7 6 10 19 9 9 9 9 10 10 7 6 7 10 8 9 9 7 11 10 7 9 10 8 9 9 8 8 10 10 7 8 nan
nan 12 4 9 7 10 7 14 10 9 11 15 12 9 9 10 11 10 15 11 9 9 9 10 11 7 7 7 9 8 6 8 9 7 9 12 12 8 6 9 9 9 7 9 10 9 8 8 nan
nan 5 8 9 7 9 8 7 8 8 10 9 9 10 9 12 11 14 27 10 9 9 9 9 9 6 8 7 10 5 7 10 8 11 10 6 7 9 9 10 8 9 9 9 9 9 9 7 nan
nan 7 10 11 14 14 13 2 8 5 6 6 9 11 14 14 12 22 16 9 9 9 9 10 8 8 7 8 9 9 7 6 11 10 6 8 8 8 11 10 10 9 8 8 10 10 10 9 nan
nan 8 15 13 12 8 10 5 5 6 8 10 13 17 16 20 22 21 8 8 8 10 8 9 8 8 6 8 6 9 9 7 8 8 8 10 9 11 10 10 10 9 9 10 10 9 10 8 nan
nan 1 7 8 2 10 9 8 6 9 8 7 16 20 14 22 22 8 8 9 10 9 8 9 8 7 7 8 7 8 8 7 8 8 10 12 11 11 10 11 9 10 9 9 10 9 10 11 nan
nan 14 -3 9 4 4 16 14 10 12 10 9 13 10 16 13 9 9 10 9 10 9 8 8 8 8 8 7 7 8 8 10 9 8 10 10 10 10 12 10 9 11 11 11 10 8 10 9 nan
nan 12 14 8 10 9 9 3 22 31 15 12 11 11 12 8 9 9 9 9 9 9 9 8 8 8 8 8 8 9 8 9 9 9 9 10 8 10 11 8 10 10 11 11 10 10 11 7 nan
nan 8 6 7 11 9 6 9 25 18 10 16 16 12 9 7 8 9 9 9 9 8 8 8 9 8 8 6 9 10 9 10 9 7 9 9 8 12 7 8 9 9 10 10 9 9 8 9 nan
nan nan nan nan nan nan nan nan nan nan nan nan nan nan nan nan nan nan nan nan nan nan nan nan nan nan nan nan nan nan nan nan nan nan nan nan nan nan nan nan nan nan nan nan nan nan nan nan nan
CAPE
0 0 0 0 0 0 0 0 0 55 0 0 0 0 0 0 0 0 20 36 150 500 148 187 658 479 324 188 102 83 55 43 2 0 0 0 0 0 0 0 0 0 0 0 0 0 0 0 0
0 0 0 0 0 0 0 0 1 25 1 0 0 0 0 0 0 1 0 17 108 645 276 116 762 618 540 382 282 217 190 120 79 25 0 0 0 0 0 0 0 0 0 0 0 0 0 2 0
0 0 0 0 0 0 0 3 42 36 0 0 0 0 0 0 0 5 101 64 131 769 443 207 879 844 822 654 539 437 387 293 191 24 0 0 0 0 0 0 0 0 16 69 51 37 19 12 18
0 0 0 0 0 1 2 30 110 11 47 0 0 0 0 0 0 0 30 14 0 304 460 867 909 1014 1033 903 745 632 574 469 250 107 72 53 18 71 129 0 0 21 88 210 265 262 219 143 356
0 0 0 0 0 0 0 0 31 64 30 1 2 0 0 0 0 0 37 34 30 4 364 1172 1046 1178 1222 1200 923 804 734 636 534 442 273 366 382 378 334 250 193 397 592 581 493 415 477 381 353
0 0 0 0 0 0 0 0 0 19 49 49 0 0 0 3 0 0 15 101 9 44 149 1563 1268 1266 1327 1311 1101 953 844 841 819 734 719 671 634 646 625 699 634 862 661 497 348 169 218 605 604
0 0 0 0 0 0 0 1 3 0 13 5 0 0 5 20 25 13 26 94 142 86 82 1909 1434 1364 1578 1437 1208 1104 1016 1016 999 955 1054 978 979 1074 1091 1228 1127 969 785 465 146 104 95 136 438
0 0 0 0 0 0 0 0 0 0 0 15 0 6 2 23 18 3 0 27 93 120 78 1825 1757 1283 1267 1314 1537 1394 1321 1312 1276 1332 1364 1248 1312 1293 1437 1476 1520 1103 777 307 165 106 51 43 212
0 0 0 0 0 0 0 0 0 0 3 19 4 0 0 0 0 0 3 0 8 76 172 760 1967 1900 1438 961 1239 1653 1507 1629 1602 1548 1539 1393 827 565 912 1087 1405 1334 809 416 309 145 125 78 34
0 0 0 0 0 0 0 0 0 0 2 12 2 7 0 6 18 1 11 42 57 16 185 243 372 1653 1658 1036 849 1430 1387 1313 1303 929 970 1111 844 980 841 613 1625 973 764 502 341 188 144 62 0
0 0 0 0 0 2 14 2 2 2 7 29 9 6 8 0 15 10 17 38 47 4 18 376 695 1320 1462 977 859 1647 1317 1115 985 879 991 1454 1465 1333 1049 650 712 710 636 378 568 296 109 94 9
0 0 0 0 0 7 0 2 0 0 13 25 60 46 41 3 12 0 2 17 30 10 185 399 1080 1678 1245 994 994 1803 1711 1303 1094 1082 1539 1521 1688 1572 1067 751 1053 707 639 730 500 267 240 158 474
0 0 0 0 0 6 3 0 0 0 9 4 13 17 9 20 12 7 20 4 47 75 255 551 1640 1493 1869 2007 1124 1563 1778 1510 1320 1565 1683 1716 1475 1255 1329 1161 1343 1279 914 849 800 656 554 333 213
0 0 0 0 0 0 0 0 0 0 1 2 0 0 0 34 27 12 46 96 291 291 378 719 2099 1838 1914 1403 2324 2123 1945 1746 1640 1560 1610 1673 1391 1300 1405 1698 1411 1240 1145 771 825 582 548 275 206
0 0 0 0 0 0 10 0 0 0 0 0 0 0 3 15 14 6 0 197 590 380 662 992 2056 2470 2226 2406 2016 3597 2402 2171 1738 1521 1710 1446 1382 1485 1878 1588 1407 1087 1055 964 758 628 708 525 173
0 0 0 0 0 0 11 3 0 0 0 0 4 10 19 34 16 25 6 136 763 954 633 1657 357 2547 2612 2698 2499 2106 2166 1976 1785 1182 1387 1321 1781 1678 1830 1498 1200 1135 1408 1041 712 591 532 623 389
0 0 0 0 0 0 33 6 0 0 3 0 2 8 6 6 3 58 60 108 439 1040 1939 1730 1883 2608 2643 2934 2721 2359 2882 1792 1325 1362 1181 1371 1500 1529 1496 1262 1270 1450 1104 863 685 562 557 474 410
0 0 0 0 0 4 20 16 0 0 37 22 37 25 0 0 0 41 127 165 411 988 1080 2276 2651 3129 2597 2705 2689 2189 1945 1421 1354 1207 1278 1821 1532 1567 1539 1263 1570 1309 977 935 584 442 476 328 230
0 0 0 0 0 0 26 0 0 0 17 0 19 4 0 0 68 137 78 226 1049 813 957 2329 2755 2992 2464 2442 2054 1538 1345 1131 963 1259 1414 1445 1496 1357 1556 1454 1175 1011 971 701 520 434 417 43 89
0 0 0 0 0 5 21 7 1 0 1 15 4 3 6 3 2 77 256 525 1215 1398 1730 1981 2055 2577 2405 2312 1978 1259 1060 794 948 1029 1498 1507 1298 1223 1420 1367 1159 1065 843 648 527 448 187 97 206
0 0 0 0 0 0 2 14 0 0 0 2 0 0 0 0 0 0 25 1300 1140 1229 1454 1480 1982 2406 2262 1704 1740 2434 1542 1759 1487 1553 1342 1619 1178 1174 1269 995 1130 890 715 557 520 533 523 539 560
0 0 0 0 0 0 0 1 0 0 0 0 2 0 0 0 2 1 96 1125 1169 971 1088 1462 1940 2008 1913 2038 1623 1579 1049 1065 1328 1104 1264 1514 1448 1269 1050 1053 581 729 685 729 714 624 428 439 310
0 0 0 0 0 0 0 0 0 0 0 0 0 0 0 0 13 42 457 1163 900 1000 1146 1493 1666 1562 1808 1870 1447 1575 1718 1610 1524 1125 1658 1451 1297 1030 813 909 939 805 888 736 610 632 436 594 431
0 0 0 0 0 14 0 0 0 0 0 0 0 0 0 2 1 34 1012 993 972 950 1100 1404 1389 1560 1429 1620 2131 1823 1645 1479 1547 1265 1477 1368 1483 1130 1097 781 877 929 853 646 913 727 636 539 492
0 5 0 0 0 0 0 0 0 0 0 0 0 0 0 6 15 824 990 900 902 966 1184 1282 1276 1300 1239 1479 1489 1487 1546 1221 1204 1317 1257 1237 1316 1062 1108 911 904 882 853 812 735 703 728 507 403
0 0 0 0 0 0 0 0 0 0 0 0 0 0 0 82 591 939 940 885 821 1089 1118 1061 1193 1088 1065 1177 1279 1425 1639 1362 1408 1444 1187 1249 1250 1104 983 754 685 812 813 594 783 741 423 419 590
0 3 0 1 0 0 0 0 0 0 0 0 0 0 155 763 943 928 863 846 967 1036 1098 1029 1036 945 980 1056 1316 1416 1458 1533 1389 1350 1247 1234 1194 834 812 670 864 774 700 745 739 416 557 506 376
1 0 0 9 0 0 0 0 0 12 6 29 0 0 665 933 829 767 823 984 974 1013 1113 1093 1007 889 895 990 986 771 1183 1178 1309 1227 1091 919 1063 500 876 907 839 788 641 637 621 548 997 446 266
2 0 7 2 1 0 0 0 221 123 41 0 0 0 640 894 782 852 784 963 923 861 830 1002 845 684 757 834 1215 1207 1226 755 1195 837 974 990 718 790 541 520 901 703 591 458 548 702 337 227 150
2 0 5 21 1 2 0 0 23 6 22 2 0 4 657 798 765 796 826 810 768 791 742 740 621 463 585 620 870 1214 682 698 923 929 983 875 492 563 557 502 605 400 605 872 500 434 605 517 299